RH
84 81 80 54 53 42 28 31 32 57 92 100 96 82 68 75 77 78 81 82 79 97 96 83 82 81 68 64 66 58 49 70 51 17 23 30 34 33 31 33 34 34 40 46 45 37 38
56 88 100 100 74 54 43 32 32 36 33 43 84 94 81 69 64 70 88 90 84 80 98 94 96 100 95 84 60 44 36 64 44 17 26 29 33 33 35 36 37 38 39 41 48 61 72
53 66 90 94 95 100 84 58 39 35 28 36 41 58 70 68 58 68 94 98 81 70 73 80 89 96 79 56 34 28 30 59 36 17 24 30 30 33 31 34 34 34 36 41 48 56 64
64 48 58 96 72 65 100 91 78 67 52 33 34 39 42 43 34 28 39 72 84 85 74 69 84 83 56 36 30 29 35 56 31 16 26 25 27 28 29 32 34 33 32 33 37 44 61
69 40 46 54 63 44 40 65 91 100 92 75 74 43 34 38 50 63 43 22 31 73 84 82 77 55 34 27 35 33 40 53 26 16 21 22 25 28 30 32 34 34 32 30 32 38 51
48 50 68 39 41 63 41 33 41 56 69 56 75 98 61 54 31 40 57 52 39 37 61 78 66 36 28 26 36 30 43 45 20 16 20 23 22 23 26 30 34 35 29 28 30 32 46
26 23 25 30 40 61 36 42 47 46 62 41 51 52 93 75 73 46 36 54 35 37 61 94 64 33 22 23 32 26 53 32 16 16 20 22 26 20 21 29 28 26 27 30 40 52 55
55 59 49 33 29 26 29 33 38 46 40 59 46 34 36 85 81 54 43 36 45 39 80 98 48 27 20 23 23 21 56 22 16 17 19 22 26 22 25 29 27 24 29 29 38 70 83
73 96 62 40 41 58 56 39 31 35 48 52 46 52 45 34 42 54 64 41 46 38 64 86 35 27 21 22 17 22 48 19 17 18 21 24 24 23 25 30 30 25 29 25 30 42 82
89 83 45 35 34 31 31 38 66 63 48 35 34 40 44 40 36 38 49 42 32 47 46 86 32 29 25 20 24 37 34 19 18 19 21 22 22 22 22 23 26 25 26 26 28 44 71
38 54 46 48 43 43 43 38 35 39 53 62 60 40 35 39 36 34 38 45 30 42 46 69 34 29 26 23 34 39 25 20 18 18 20 20 22 22 21 21 24 27 28 27 28 58 61
40 48 75 56 53 47 59 46 40 41 38 43 58 72 53 38 34 38 35 30 42 35 67 45 38 32 28 24 25 23 21 21 20 20 19 19 20 20 23 26 28 38 41 27 32 66 54
58 70 51 76 59 68 81 70 61 56 49 39 38 48 59 62 52 37 38 28 34 37 76 61 36 38 32 28 25 25 23 20 21 20 20 20 21 23 28 41 49 48 40 42 76 73 62
59 67 72 64 84 99 87 62 82 73 59 51 56 55 42 45 53 66 38 27 21 56 86 73 50 36 43 33 32 32 32 33 34 35 37 34 37 38 42 56 54 49 51 99 85 67 76
78 96 100 100 90 71 53 61 100 100 80 76 59 56 43 47 47 46 65 37 28 43 82 97 76 46 43 45 44 36 38 47 53 60 59 58 59 64 65 65 59 56 88 99 81 73 75
100 100 100 100 83 64 59 70 96 100 100 90 95 85 54 41 40 38 40 49 42 43 60 85 99 74 49 44 48 57 50 52 62 68 66 64 71 81 92 94 93 97 100 100 100 93 84
52 47 43 36 63 72 74 63 62 76 100 94 86 95 77 68 46 37 32 36 43 53 47 70 82 100 80 70 42 42 45 57 67 79 74 67 72 90 100 100 100 100 100 100 100 99 96
44 50 66 75 70 85 93 88 82 75 89 100 100 99 91 78 63 56 39 32 36 35 52 42 57 73 100 99 84 56 43 46 59 58 74 88 62 62 83 100 100 100 100 100 100 100 87
55 62 61 70 86 94 99 94 94 76 100 97 90 98 99 93 70 73 72 55 32 29 35 47 51 69 75 90 100 92 72 47 42 46 60 73 73 69 68 83 100 100 100 100 100 100 91
72 74 90 100 98 96 97 100 92 93 95 99 95 78 74 60 87 89 87 70 50 34 31 32 42 59 64 59 97 87 100 91 55 50 47 49 54 64 72 74 84 94 100 100 100 100 100
72 84 99 93 82 100 100 94 92 100 96 99 100 91 96 89 81 74 61 52 50 37 34 32 28 47 69 60 66 82 78 100 100 87 74 65 57 53 61 66 69 74 81 78 78 86 89
90 70 82 79 92 93 90 100 100 84 88 88 91 84 74 63 63 44 39 33 25 24 25 27 34 31 53 83 83 100 95 70 98 100 100 100 100 92 85 72 73 74 68 70 76 87 98
57 78 79 90 100 82 93 98 100 88 67 64 61 47 39 35 29 26 20 16 15 12 12 11 17 24 31 47 88 96 100 100 98 95 100 100 100 100 100 98 100 89 92 100 100 100 100
87 78 83 96 69 73 72 93 94 79 68 54 47 35 29 17 18 14 12 11 12 12 12 11 11 13 29 37 59 97 100 100 100 100 100 100 100 100 100 100 100 100 100 100 100 100 100
72 73 77 77 61 64 68 80 87 68 55 43 37 24 11 11 11 12 12 12 12 12 13 12 12 12 23 44 45 58 88 100 100 100 100 100 100 100 100 100 100 100 100 100 100 100 100
62 69 54 73 56 55 69 79 77 60 42 31 23 10 10 9 12 11 12 12 12 12 12 12 13 13 18 34 92 55 65 90 100 100 100 100 100 100 100 100 100 100 100 100 100 100 100
80 64 67 63 54 55 60 58 43 36 19 15 11 10 10 10 12 12 11 12 11 11 12 12 13 13 14 25 56 72 63 85 99 100 100 100 100 100 100 100 100 100 100 100 100 100 100
76 61 64 56 45 39 34 32 23 16 11 10 11 10 10 11 11 12 12 12 12 11 11 12 12 14 15 19 37 63 100 100 97 100 100 100 100 100 100 100 100 100 100 100 100 100 100
61 67 52 41 28 21 18 15 12 10 10 10 10 11 10 10 12 12 13 12 12 12 12 12 13 14 15 16 25 47 90 100 100 100 100 100 100 100 100 100 100 100 100 100 100 100 100
Wind_Speed
17 15 15 12 14 16 14 17 18 19 29 35 39 44 45 44 44 43 42 40 38 34 35 36 36 35 34 34 34 36 34 31 27 25 26 21 17 12 7 4 2 2 2 4 5 6 7
18 15 16 15 16 17 17 17 20 21 20 22 25 29 33 37 33 36 35 36 38 36 36 36 35 37 36 38 38 36 31 31 31 30 29 24 22 18 12 9 5 3 2 2 4 6 8
15 14 15 13 14 17 20 22 19 20 17 19 23 28 31 33 37 34 35 35 35 35 34 35 36 33 37 38 34 31 30 33 34 33 34 30 26 25 21 16 11 9 9 9 10 12 14
17 16 18 18 19 22 23 22 23 23 27 24 19 19 21 24 27 34 39 41 40 38 36 37 38 38 39 35 34 35 33 37 36 37 37 32 30 27 25 23 19 15 15 16 16 17 17
27 24 21 23 23 25 26 28 28 31 29 25 28 26 25 26 28 28 32 38 42 46 40 37 39 38 35 36 35 37 38 41 40 39 40 37 35 29 27 26 26 23 24 24 22 22 22
29 30 34 32 28 29 27 29 32 33 35 37 34 32 34 33 33 35 35 37 37 41 43 40 40 38 36 38 36 38 41 44 43 41 43 40 39 35 34 29 29 30 30 28 26 27 30
29 39 38 35 37 40 37 33 32 34 34 36 37 38 40 41 38 36 38 39 39 37 39 41 41 40 38 38 37 40 45 46 45 43 43 42 40 40 33 33 33 34 33 32 29 31 33
35 36 37 37 40 43 43 48 45 39 41 39 38 38 38 42 46 42 41 42 38 35 35 40 39 38 38 36 37 41 47 47 46 44 45 44 44 40 38 38 37 37 36 35 29 31 30
38 41 41 44 42 42 44 44 47 47 47 47 46 46 45 44 42 45 45 42 38 35 32 39 39 35 37 35 33 40 48 47 46 45 46 46 44 43 42 42 41 41 40 38 34 35 33
43 40 41 43 43 43 46 47 48 49 46 50 51 53 51 48 50 48 46 43 37 37 32 40 42 33 34 32 36 42 49 48 47 48 47 45 45 47 46 46 46 45 45 43 40 40 36
44 48 46 49 45 47 49 47 48 49 53 56 51 53 57 53 54 51 48 46 39 34 34 37 41 33 33 29 31 42 46 46 48 49 47 47 47 48 48 47 48 48 48 47 46 42 35
47 47 51 51 53 53 53 54 55 51 53 52 50 52 55 57 59 57 51 47 45 33 41 35 42 37 34 33 33 40 42 43 45 46 47 48 47 48 48 48 50 49 50 51 49 44 37
52 51 51 51 55 55 57 59 59 58 59 55 57 56 50 51 57 60 60 50 45 35 47 40 43 44 39 40 39 41 44 44 46 47 49 48 48 50 50 51 51 53 54 53 49 46 43
55 56 57 57 58 60 63 68 66 64 60 57 56 60 63 63 59 60 61 59 44 47 52 48 47 50 48 46 47 46 45 45 46 47 47 48 50 53 55 55 55 55 56 53 51 49 43
63 59 58 57 61 63 65 65 68 68 65 62 62 63 59 65 65 68 59 56 56 50 56 55 54 54 55 55 54 54 52 52 53 54 54 55 55 57 58 60 60 59 58 59 56 54 53
60 61 68 72 70 70 68 65 69 69 68 67 70 70 72 67 71 72 73 68 59 64 61 64 60 60 61 63 62 63 62 59 61 63 61 59 61 62 63 64 63 62 62 62 63 61 60
74 75 75 77 79 78 75 71 67 68 71 72 73 73 71 79 80 75 73 73 66 67 75 71 69 68 66 66 71 70 67 67 70 71 70 68 66 63 64 62 63 63 64 69 72 70 69
80 77 79 81 84 83 79 73 75 75 77 79 78 78 77 79 78 79 75 77 79 74 75 81 77 76 74 73 73 74 75 75 77 78 76 76 73 69 69 68 69 70 71 75 79 77 76
84 81 87 86 86 82 83 86 82 77 78 81 84 85 86 86 84 80 81 83 83 81 83 80 87 83 86 85 83 79 79 80 83 84 84 84 80 78 74 73 75 78 79 82 84 85 81
91 88 84 84 87 93 93 82 73 77 76 76 77 77 85 90 89 88 90 92 93 93 90 92 85 93 90 93 90 86 82 84 86 86 88 89 88 85 83 84 84 84 85 88 91 89 88
92 91 92 89 88 82 88 83 82 86 88 88 87 91 88 89 94 99 103 101 105 105 106 101 97 91 96 98 99 92 91 89 90 91 90 91 88 89 90 91 90 90 90 93 94 93 95
92 86 84 87 86 89 86 88 88 93 95 93 96 97 100 99 98 104 107 109 105 101 104 105 103 103 97 102 100 98 100 99 95 95 95 93 94 93 92 93 92 92 92 95 95 95 95
101 94 98 96 98 98 94 99 96 92 100 99 103 104 106 103 102 103 96 93 84 81 84 89 98 101 104 102 105 101 100 103 104 99 99 98 95 97 98 97 98 97 93 94 93 94 95
104 103 106 102 105 99 102 99 98 100 104 108 110 111 108 95 90 89 83 78 73 72 73 77 86 95 101 103 105 106 99 100 101 107 106 104 98 99 99 97 102 96 94 92 91 91 93
111 107 111 118 110 108 104 99 99 103 109 111 109 103 92 81 78 79 77 73 70 68 68 71 78 86 96 98 104 107 101 103 100 99 100 102 102 99 99 100 97 100 93 101 95 85 92
120 112 119 121 117 108 99 99 105 111 112 108 101 92 83 73 73 76 74 73 70 68 69 69 70 78 91 100 106 108 103 104 104 104 103 99 99 96 98 99 98 96 89 90 95 100 96
118 122 119 116 112 105 100 103 107 111 105 93 88 83 78 71 71 73 73 73 71 69 70 70 72 74 83 99 105 106 105 106 108 106 106 105 101 102 103 101 102 101 102 102 96 98 97
120 124 117 113 105 103 104 104 103 100 91 82 79 78 73 69 67 69 69 69 69 69 68 71 71 72 75 88 103 108 108 111 111 111 111 109 109 108 110 106 103 105 104 108 107 106 106
124 117 112 108 106 102 99 97 91 85 79 75 72 71 67 63 62 63 64 65 66 67 67 69 70 73 76 81 98 110 113 114 113 114 114 114 114 113 114 115 111 108 107 108 111 115 118
Wind_Direction
296 294 292 290 299 316 312 321 302 282 271 267 267 266 267 275 282 285 282 280 279 269 270 270 268 267 270 268 271 273 269 256 241 231 219 212 210 206 191 170 132 89 59 39 33 19 6
302 307 321 295 296 303 312 310 308 303 302 284 278 282 283 278 280 283 281 280 279 275 272 271 270 269 271 271 274 268 255 238 233 224 218 214 220 217 223 228 236 255 266 296 321 324 330
311 295 315 304 293 290 295 302 301 307 300 302 298 285 282 287 289 283 278 280 281 281 277 275 270 270 274 272 268 258 247 227 228 223 218 219 224 227 231 231 231 249 264 280 294 303 311
313 297 290 291 295 307 301 290 289 300 306 293 298 305 309 309 302 297 289 283 276 279 277 275 276 277 273 268 265 256 243 222 222 223 221 226 225 232 237 235 241 257 272 277 285 294 299
316 312 292 285 286 293 285 291 298 296 300 297 293 293 297 306 307 308 302 296 285 275 275 273 278 276 270 272 267 248 235 217 218 222 226 229 230 232 236 244 249 257 273 278 278 286 290
324 321 312 308 294 288 289 283 284 288 293 296 297 291 289 297 308 302 307 309 301 281 267 268 278 274 272 278 265 241 229 215 216 218 225 229 233 236 240 250 251 257 270 273 279 282 290
315 309 309 311 309 302 295 285 281 277 283 285 288 290 290 290 293 302 309 308 308 287 264 266 276 275 274 278 262 234 223 215 216 218 224 229 232 238 243 245 252 261 268 273 280 282 284
327 327 328 319 307 297 300 296 286 279 274 277 280 280 285 285 289 292 297 308 310 292 267 269 268 271 276 275 255 230 219 214 218 219 225 229 234 240 242 245 254 262 267 272 277 282 283
316 319 323 326 318 304 300 291 292 287 283 278 279 277 278 278 283 287 295 296 305 303 275 274 266 269 276 272 246 232 217 215 219 222 226 230 234 240 244 248 256 262 266 270 270 280 283
309 311 317 323 321 322 320 307 294 288 282 278 283 280 276 269 275 281 285 289 293 303 290 271 265 266 275 271 248 230 217 219 222 225 229 233 237 243 246 252 255 261 263 267 269 277 273
311 309 305 313 314 320 321 322 310 297 290 290 281 280 280 274 272 275 276 280 286 288 302 268 259 260 263 264 247 225 221 226 228 233 235 238 242 246 252 254 257 260 265 269 272 273 268
308 307 302 302 309 311 311 313 314 310 307 292 284 280 275 277 278 276 273 271 276 277 287 273 257 254 249 247 241 236 232 237 237 240 241 243 246 250 253 256 258 261 264 268 271 267 264
307 299 301 298 303 305 306 306 304 305 308 303 292 284 280 280 274 275 278 270 265 269 273 271 257 253 246 244 238 236 240 239 240 241 243 247 249 251 253 256 259 261 265 268 264 262 263
301 298 297 296 299 302 303 305 301 297 296 300 294 293 288 285 282 276 270 272 260 262 265 264 252 252 249 243 241 237 236 240 242 245 248 250 251 252 255 257 260 264 267 262 258 262 264
298 297 295 298 306 305 305 302 293 292 287 287 290 291 291 281 282 283 271 271 269 257 258 256 254 249 251 248 244 242 240 239 241 244 250 253 253 255 257 260 263 266 262 260 262 262 265
301 297 301 303 304 306 302 298 292 289 284 284 284 285 291 289 287 281 278 273 261 262 254 252 250 248 245 250 249 248 245 243 245 247 249 251 253 256 260 261 263 261 259 263 266 265 267
309 304 305 307 303 304 304 298 293 289 282 282 287 279 283 288 289 284 278 270 263 253 257 252 247 246 244 245 249 251 249 251 250 250 252 253 252 252 257 258 257 257 259 263 266 268 267
304 305 305 302 304 301 300 294 292 291 286 284 283 283 283 285 284 282 279 270 266 259 253 254 251 245 244 246 247 249 250 251 253 255 254 254 254 255 255 257 258 259 261 263 265 267 269
305 303 307 305 303 300 297 297 294 291 284 287 286 281 282 283 282 273 275 272 269 264 258 251 250 250 247 244 248 247 248 250 250 252 255 257 257 256 256 259 260 260 263 265 267 269 271
306 306 303 300 299 295 298 295 293 288 286 287 291 292 287 282 282 277 275 273 272 267 262 255 246 245 248 246 245 244 246 248 251 252 254 254 257 259 259 259 260 261 263 267 270 272 274
306 304 298 299 298 292 293 291 292 292 290 287 293 291 294 285 279 277 274 274 273 269 266 260 251 243 242 245 243 244 245 247 249 251 253 255 257 257 258 259 260 262 264 267 270 272 274
307 299 301 303 301 298 293 292 293 291 291 289 287 288 290 286 282 277 276 276 271 265 262 258 254 250 241 242 242 245 246 247 247 249 253 254 256 256 258 259 260 262 264 266 269 271 273
304 300 300 299 300 299 290 292 289 289 291 292 291 288 285 282 280 279 278 275 270 263 258 255 250 246 244 241 241 241 246 249 248 250 252 254 257 259 259 261 263 263 266 269 271 271 271
300 300 299 296 295 295 295 292 288 289 291 291 290 287 287 283 280 279 275 270 264 260 258 255 250 243 239 240 239 239 242 245 250 251 252 252 254 256 259 263 264 265 266 267 269 270 273
296 297 296 296 295 294 294 291 290 291 292 291 289 287 284 282 279 275 270 264 262 262 258 253 252 244 239 237 242 240 240 241 246 250 254 254 254 257 258 259 263 265 266 268 266 266 271
294 294 295 294 294 293 290 292 292 292 291 291 288 284 282 280 276 270 266 263 260 260 258 255 252 247 240 235 236 240 240 243 243 247 250 252 254 256 257 259 260 258 259 266 270 272 270
293 294 296 292 291 290 292 291 293 292 290 288 284 282 280 277 271 266 263 261 260 258 257 254 251 248 242 238 235 239 242 243 244 246 249 253 252 254 255 256 258 260 262 264 261 265 273
292 294 291 290 291 291 292 293 290 289 287 285 282 280 278 274 267 263 261 260 259 257 255 252 251 249 246 240 237 237 239 243 244 245 248 250 253 254 257 257 257 261 261 262 261 260 262
291 290 290 290 292 293 292 291 290 288 285 283 280 277 275 270 264 262 261 259 258 256 254 253 251 248 246 244 239 237 237 240 243 246 248 251 252 255 259 261 260 262 264 265 261 263 266